Redmond, OR

5:46 AM PDT on May 25, 2017 (GMT -0700)
Roberts Field Airport

Weather History for KRDM - September, 2013

Change the Weather History Date:

Monday, September 30, 2013

  Actual Average Record
Temperature  
Mean Temperature 47 °F 53 °F  
Max Temperature 58 °F 71 °F 91 °F (2011)
Min Temperature 35 °F 34 °F 23 °F (1954)
Degree Days  
Heating Degree Days 18 12  
Month to date heating degree days 230 250  
Since 1 July heating degree days 266 399  
Cooling Degree Days 0 0  
Month to date cooling degree days 36 16  
Year to date cooling degree days 350 222  
Moisture  
Dew Point 35 °F    
Average Humidity 66    
Maximum Humidity 92    
Minimum Humidity 40    
Precipitation  
Precipitation 0.02 in 0.01 in 0.22 in (1951)
Month to date precipitation 1.01 0.41  
Year to date precipitation 4.09 6.14  
Sea Level Pressure  
Sea Level Pressure 29.87 in    
Wind  
Wind Speed 10 mph (SW)    
Max Wind Speed 24 mph    
Max Gust Speed 31 mph    
Visibility 10 miles    
Events Rain    
T = Trace of Precipitation, MM = Missing Value Source: NWS Daily Summary

Daily Weather History Graph

Daily Weather History Graph

Search for Another Location

Airport or City:

Trip Planner

Search our weather history database for the weather conditions in past years. The results will help you decide how hot, cold, wet, or windy it might be!

Date:

Astronomy

Sep. 30, 2013 Rise Set
Actual Time 7:01 AM PDT 6:46 PM PDT
Civil Twilight 6:32 AM PDT 7:15 PM PDT
Nautical Twilight 5:59 AM PDT 7:48 PM PDT
Astronomical Twilight 5:24 AM PDT 8:22 PM PDT
Moon 2:35 AM PDT (9/30) 4:27 PM PDT (9/30)
Length of Visible Light 12h 42m
Length of Day
11h 44m
Waning Crescent, 18% of the Moon is Illuminated
Sep 30
Waning Crescent
Oct 4
New
Oct 11
First Quarter
Oct 18
Full
Oct 26
Last Quarter

Hourly Weather History & Observations

Time (PDT) Temp. Windchill Dew Point Humidity Pressure Visibility Wind Dir Wind Speed Gust Speed Precip Events Conditions
12:04 AM 51.8 °F - 46.4 °F 82% 29.60 in 5.0 mi WSW 17.3 mph 26.5 mph 0.01 in Rain Light Rain
12:22 AM 50.0 °F - 44.6 °F 82% 29.61 in 8.0 mi WNW 20.7 mph 29.9 mph 0.02 in Rain Light Rain
12:56 AM 46.0 °F 38.5 °F 42.1 °F 86% 29.64 in 7.0 mi WNW 19.6 mph 28.8 mph 0.04 in Rain Rain
1:56 AM 43.0 °F 35.7 °F 37.9 °F 82% 29.73 in 10.0 mi WNW 15.0 mph - 0.01 in Rain Light Rain
2:56 AM 42.1 °F 36.1 °F 34.0 °F 73% 29.76 in 10.0 mi West 10.4 mph 19.6 mph 0.01 in   Mostly Cloudy
3:56 AM 39.9 °F 34.5 °F 35.1 °F 83% 29.77 in 10.0 mi South 8.1 mph - N/A   Clear
4:56 AM 39.0 °F 34.8 °F 34.0 °F 82% 29.81 in 10.0 mi West 5.8 mph - N/A   Clear
5:56 AM 36.0 °F 30.3 °F 33.1 °F 89% 29.82 in 10.0 mi South 6.9 mph - N/A   Partly Cloudy
6:56 AM 39.0 °F 31.8 °F 30.9 °F 73% 29.83 in 10.0 mi South 11.5 mph - N/A   Clear
7:56 AM 42.1 °F 33.9 °F 30.9 °F 65% 29.84 in 10.0 mi South 17.3 mph 23.0 mph N/A   Clear
8:56 AM 46.0 °F 39.6 °F 30.9 °F 56% 29.84 in 10.0 mi SSW 15.0 mph 26.5 mph N/A   Clear
9:56 AM 48.9 °F - 33.1 °F 54% 29.86 in 10.0 mi SSW 19.6 mph 26.5 mph N/A   Clear
10:56 AM 52.0 °F - 34.0 °F 50% 29.87 in 10.0 mi SSW 17.3 mph 25.3 mph N/A   Partly Cloudy
11:56 AM 53.1 °F - 33.1 °F 47% 29.88 in 10.0 mi WSW 16.1 mph 25.3 mph N/A   Overcast
12:56 PM 53.1 °F - 33.1 °F 47% 29.92 in 10.0 mi SSW 17.3 mph 24.2 mph N/A   Overcast
1:56 PM 54.0 °F - 34.0 °F 47% 29.92 in 10.0 mi SW 17.3 mph 26.5 mph N/A   Mostly Cloudy
2:56 PM 57.0 °F - 34.0 °F 42% 29.93 in 10.0 mi SW 15.0 mph 24.2 mph N/A   Partly Cloudy
3:56 PM 57.9 °F - 36.0 °F 44% 29.94 in 10.0 mi SSW 12.7 mph 24.2 mph N/A   Overcast
4:56 PM 55.0 °F - 36.0 °F 49% 29.96 in 10.0 mi WNW 8.1 mph - N/A   Overcast
5:56 PM 52.0 °F - 35.1 °F 53% 29.97 in 10.0 mi Calm Calm - N/A   Partly Cloudy
6:56 PM 51.1 °F - 35.1 °F 54% 29.98 in 10.0 mi WSW 8.1 mph - N/A   Overcast
7:56 PM 46.9 °F - 36.0 °F 66% 30.00 in 10.0 mi NNW 3.5 mph - N/A   Overcast
8:56 PM 45.0 °F 41.8 °F 36.0 °F 71% 30.00 in 10.0 mi NNW 5.8 mph - N/A   Mostly Cloudy
9:56 PM 41.0 °F - 35.1 °F 79% 30.01 in 10.0 mi Calm Calm - N/A   Partly Cloudy
10:56 PM 41.0 °F 39.0 °F 35.1 °F 79% 30.01 in 10.0 mi East 3.5 mph - N/A   Scattered Clouds
11:56 PM 41.0 °F 38.0 °F 35.1 °F 79% 30.01 in 10.0 mi ESE 4.6 mph - N/A   Mostly Cloudy